Showing default

FLOCK 4H 34, 66737

Orbit data source: Space-Track

FLOCK 4H 34, 66737 is a payload satellite owned by Planet (US) in SSO that was launched on Fri, 28 Nov 2025 UTC via an FALCON 9 launch vehicle from the Air Force Western Test Range (AFWTR). Payload-class satellites include a variety of spacecraft equipped with specific instruments for various scientific and technological missions. These include communications satellites like Starlink; space stations such as the ISS; scientific satellites like the Hubble; Earth observation satellites from companies like Planet Labs, Umbra, and HawkEye 360; GPS; miniature CubeSats for education and research; and military/defense satellites.

Loading next visibility...
Identifier
66737, 2025-276BZ
Orbit
SSO
Country
Flag of USUS
Related business
Manufacturer
Planet
Mission
Operational Commercial Imaging
Bus & Motor
CUBESAT 3U, Unknown motor
Mass
5.7 kg wet, 5.7 kg dry
Launch date (UTC)
2025-11-28 (2 months ago)
Launch vehicle
FALCON 9
Launch site
Air Force Western Test Range (AFWTR)
Object type
Payload
Rocket body
Debris
Shape & HBR
Box + 2 Pan, 1.0 m
Radar Cross Section
0.072 m²

Expand to show TLE details & history
Last TLE update: 1 day ago

TLE from 1 day ago
0 FLOCK 4H 34
1 66737U 25276BZ  26034.18936310  .00007878  00000-0  38179-3 0  9998
2 66737  97.4378 110.1360 0003601  69.4809 290.6811 15.18791880  9337
Epoch: 2026-02-03T04:32Z
TLE epoch observation values (Epoch: 2026-02-03T04:32:40.971Z)
Latitude
-0.0001°
Longitude
-91.40857°
Altitude
511.703 km
Speed
7.608 km/s
True Right ascension
07h 20m 32s
True Declination
0° 00' 00"
Sunlit
Object was in full shadow at epoch
Visualization orbit readout
Latitude
Unknown
Longitude
Unknown
Altitude
Unknown
Speed
Unknown
Apparent Right ascension
Unknown
Apparent Declination
Unknown
Sunlit
N/A
Visualization observer readout
Local Sidereal Time
07:05:32
Azimuth
Unknown
Elevation
Unknown
Doppler factor
Unknown
Orbital elements
Apogee altitude
508.939 km
Perigee altitude
503.98 km
Semi-major axis
6,884.596 km
Eccentricity
0.00036
Inclination
97.4378°
RAAN
110.136°
Arg. of periapsis
69.4809°
True anomaly
290.64249°
Mean anomaly
290.6811°
Eccentric anomaly
290.66179°
Mean motion
3.79949 °/min
Orbital period
94.75 mins
BSTAR
0.00038179
Loading maneuver chart data...
Computing Atmospheric mass density...
Loading historical data...
Loading historical data...
Loading historical data...
Loading historical data...
Loading historical data...
Loading historical data...
Loading historical data...

Documentation

Showing up to 5 results
|